Location: *
(43.4667°N, 11.6833°E)
Time: 06:53:18
(UTC+00:00)

USA 245 - Pass Details

Date: 19 July 2019
Orbit: 264 x 1004 km, 97.9° (Epoch: 22 August)

Event Time Altitude Azimuth Distance (km) Brightness Sun altitude
Exits shadow 20:50:30 24° 248° (WSW) 605 3.7 -17.2°
Maximum altitude 20:50:46 25° 261° (W) 593 3.8 -17.2°
Drops below altitude 10° 20:52:43 10° 322° (NW) 1,088 6.2 -17.4°
Sets 20:54:43 0° 336° (NNW) 1,943 7.7 -17.7°
